Theta_e
314 313 314 313 313 314 314 314 314 313 313 313 313 312 312 311 311 310 310 309 308 307 306 305 304 303 303 302 301 301 300 299 299 298 297 297 297 297 297 297 297 297 297 296 296 296 296 296 296 296 296 296 296 296 295 295 295 294 294 294 293 294 293 293 294 294 295 297 295 295 295 294 295 296 294 295 295 295 295 296 296 297 298 299 300
313 313 313 313 313 313 313 313 313 313 313 312 312 311 311 310 310 309 308 306 305 304 303 303 302 301 301 300 299 299 298 298 297 297 297 297 297 297 297 297 297 297 297 297 296 296 296 296 296 296 296 296 296 296 295 295 295 294 294 294 293 293 293 292 292 292 294 296 296 295 295 294 294 295 294 294 294 294 294 294 294 295 295 296 297
313 313 313 313 313 313 313 313 313 312 312 311 311 310 310 309 307 306 305 304 303 302 302 301 300 299 299 298 298 298 297 297 297 297 297 297 297 297 297 297 296 296 296 297 296 296 296 296 296 296 296 296 295 295 295 295 295 294 294 294 294 293 293 292 292 292 292 294 295 295 294 293 293 294 294 293 293 293 293 293 293 293 294 294 294
313 313 313 313 313 313 313 313 312 312 311 310 310 309 307 306 304 303 303 302 302 301 300 299 298 298 298 298 297 297 297 297 297 297 297 297 297 297 297 296 296 296 296 296 296 296 296 296 295 295 295 295 295 294 294 294 294 294 293 293 293 293 292 292 291 292 292 292 294 294 294 293 293 293 293 293 292 293 293 293 293 293 293 293 293
313 313 313 313 313 312 312 312 311 310 310 309 308 306 305 304 303 302 302 300 300 299 298 297 297 297 297 297 297 297 297 297 296 296 296 296 296 296 296 296 296 296 295 295 295 295 294 294 294 294 293 293 293 293 293 293 293 292 292 292 292 292 292 291 291 291 291 291 292 293 293 292 293 293 292 292 292 292 292 292 292 292 293 292 293
313 312 312 313 312 312 311 311 310 309 308 307 305 304 303 303 302 301 300 298 298 298 297 297 297 297 297 297 296 296 296 296 296 296 296 296 296 296 296 295 295 295 294 294 294 293 293 293 293 293 293 293 293 293 292 292 292 292 291 291 291 291 290 290 290 290 290 290 290 291 292 292 292 292 292 291 291 292 292 292 292 292 292 292 292
312 312 312 312 312 311 310 309 308 307 306 305 304 303 302 301 300 299 298 298 298 297 297 297 297 297 296 296 296 296 296 296 296 296 296 296 295 295 295 294 294 294 293 293 293 293 293 293 293 293 293 292 292 292 292 292 291 291 291 290 290 290 289 289 289 289 289 290 290 290 290 291 291 291 291 291 291 291 292 292 292 291 291 291 292
312 312 312 311 311 310 309 307 306 305 304 303 303 302 301 300 299 298 298 298 297 297 297 297 296 296 296 296 296 296 295 295 295 295 295 295 295 294 294 293 293 293 293 293 294 294 293 293 293 293 293 292 292 291 291 291 291 291 291 290 289 289 289 289 289 289 289 290 290 290 290 290 290 290 290 291 291 291 291 292 293 292 292 292 292
312 311 311 311 310 309 307 305 304 303 303 303 302 301 300 299 298 298 297 297 297 297 297 296 296 296 296 295 295 295 295 295 295 295 294 294 294 293 293 293 293 293 294 294 294 293 293 293 293 293 292 292 291 291 291 291 290 290 290 290 290 289 289 288 288 289 289 290 290 290 290 290 290 290 290 290 291 291 291 292 293 293 293 293 293
311 310 310 309 308 307 305 304 303 303 303 302 301 300 299 298 298 297 297 297 297 297 296 296 296 295 295 295 295 295 294 294 294 293 293 293 293 293 293 293 293 293 294 294 294 294 293 293 293 292 292 291 291 291 290 290 290 290 290 290 289 288 288 288 288 288 289 290 290 290 290 290 290 290 290 290 290 291 291 291 292 292 293 293 293
310 310 309 308 306 305 304 303 303 302 302 301 300 299 298 298 297 297 297 296 296 296 295 295 295 295 295 294 294 294 293 293 293 293 293 293 292 293 293 293 293 293 293 293 293 293 293 293 293 292 291 291 290 290 290 290 290 289 289 289 288 288 288 288 288 288 289 289 290 290 290 290 290 290 290 290 290 290 291 291 292 292 292 292 292
309 308 307 306 305 304 303 303 302 301 300 299 298 298 297 297 297 296 296 296 296 295 295 295 295 294 294 293 293 293 292 292 292 292 292 292 292 293 293 293 293 293 293 293 293 293 293 293 293 292 291 290 290 290 290 290 290 289 289 289 288 288 287 287 288 288 288 289 289 289 290 290 290 290 290 290 290 290 290 291 291 291 291 292 292
307 307 305 304 304 303 302 302 301 300 299 298 297 297 297 297 296 296 296 296 295 295 295 294 294 293 293 293 292 292 292 292 292 292 292 292 292 293 293 293 293 293 293 293 292 292 292 292 292 292 291 290 290 290 290 290 290 290 289 289 289 288 288 287 287 288 288 288 289 289 289 290 290 290 290 290 290 290 290 290 291 291 291 291 292
305 305 304 303 302 301 301 300 299 298 297 297 297 297 297 296 296 296 296 295 295 294 294 293 293 293 292 292 291 291 291 292 292 292 292 292 292 292 293 293 293 293 293 292 292 292 291 290 291 291 291 290 290 289 289 289 289 290 289 289 289 288 287 287 287 287 288 288 288 289 289 289 289 289 289 289 290 290 290 290 290 290 290 290 290
303 303 302 302 301 300 300 299 298 297 297 297 297 296 296 296 296 296 295 295 294 294 293 293 292 292 292 291 291 291 291 291 291 292 292 292 292 292 292 293 293 293 293 292 291 290 290 290 290 290 290 290 290 289 289 288 288 288 288 288 288 288 287 286 285 286 286 287 287 287 287 288 288 288 288 289 289 289 289 289 289 289 290 290 290
302 301 301 300 300 299 298 297 297 297 296 296 296 296 296 296 296 295 295 294 294 293 293 292 292 291 291 291 291 291 291 291 291 291 292 292 292 292 292 292 292 292 292 291 290 290 290 289 289 289 289 289 289 289 288 287 286 286 286 287 287 287 287 286 285 285 285 285 285 286 286 286 286 287 288 288 288 288 288 288 289 289 289 290 291
301 300 300 299 298 298 297 297 296 296 296 296 296 296 296 295 295 294 294 293 293 292 292 291 291 291 291 291 291 291 291 291 291 291 291 291 291 291 291 292 291 291 291 291 290 290 289 289 289 289 289 289 289 289 288 286 285 285 284 284 285 285 286 286 285 284 284 284 284 285 285 286 286 286 287 287 287 288 288 289 289 289 289 290 290
300 299 299 298 298 297 297 296 296 296 295 295 295 295 295 295 294 294 293 293 292 292 291 291 291 291 291 291 291 291 291 291 290 290 290 290 290 290 290 290 290 290 290 290 290 290 289 289 289 288 288 288 289 289 288 286 284 283 283 283 284 284 284 284 283 283 283 283 283 284 284 285 285 285 285 286 286 286 287 287 288 288 288 289 289
299 298 298 297 297 297 297 296 296 295 295 295 295 295 294 294 293 293 293 292 292 291 291 291 290 290 290 290 290 290 290 290 290 290 290 289 289 289 289 289 289 290 290 290 290 290 289 289 289 288 288 288 288 287 287 285 283 283 283 283 284 283 283 283 283 283 283 283 283 283 283 283 284 284 285 285 285 285 286 286 288 288 288 288 289
298 297 297 296 296 296 296 296 295 295 295 295 294 294 293 293 293 292 292 291 291 291 290 290 290 290 290 290 290 290 290 289 289 289 289 289 289 288 288 288 289 289 289 289 289 289 289 289 289 288 288 287 287 286 284 283 282 283 283 283 283 283 283 283 283 283 283 283 283 283 284 284 284 285 285 285 285 285 286 288 289 288 287 288 289
297 296 296 296 296 296 296 295 295 295 294 294 293 293 293 293 292 292 291 291 290 290 290 290 290 290 290 290 290 290 289 289 289 288 288 288 288 288 288 288 288 288 289 289 288 288 289 289 289 288 288 288 287 285 283 282 282 283 283 283 283 283 283 283 283 283 283 284 284 284 284 284 285 285 285 285 285 286 286 287 288 288 288 288 289
296 296 296 296 296 296 295 295 294 294 294 294 293 293 293 292 291 291 290 290 290 290 290 290 290 290 290 290 290 289 289 289 288 288 288 288 288 288 288 288 288 288 288 288 288 288 288 288 288 288 288 287 286 284 282 281 282 282 282 282 283 283 283 283 283 283 284 284 284 285 285 285 285 286 286 286 286 286 287 287 288 288 289 289 290
295 295 295 296 295 295 295 294 294 293 294 294 293 293 292 291 291 290 290 290 290 290 290 290 290 290 290 290 290 289 289 288 288 288 288 287 287 287 287 287 287 287 287 287 287 287 287 287 288 288 287 286 285 284 282 282 282 282 282 282 282 282 282 282 283 283 284 284 285 285 285 286 286 286 286 286 286 287 287 288 288 289 289 290 290
295 295 295 295 295 295 294 294 293 294 294 293 292 291 290 290 290 290 290 290 290 290 290 290 290 290 290 290 289 289 288 288 287 287 287 287 287 287 287 287 287 287 287 287 287 286 286 286 286 286 286 285 285 284 283 283 282 282 281 281 281 281 281 282 282 283 284 284 285 285 285 286 286 286 287 287 287 287 287 287 287 288 288 289 289
295 295 295 295 295 294 293 294 294 294 293 292 291 290 290 290 290 290 290 290 290 290 290 289 290 289 289 289 289 288 287 287 287 287 287 287 287 287 287 287 286 286 286 286 286 285 285 285 285 285 285 285 284 283 283 283 282 282 281 281 281 281 281 281 282 283 283 284 284 285 286 286 286 287 287 287 287 287 287 287 287 287 288 288 288
295 295 295 295 294 294 295 296 296 294 292 291 290 290 290 290 290 290 289 289 289 289 289 289 289 289 289 288 288 287 287 287 287 287 287 287 286 286 286 286 286 286 286 286 286 285 285 285 283 283 283 283 283 282 281 281 281 281 281 281 280 280 281 281 281 282 283 283 284 285 285 286 286 287 287 287 287 287 286 286 287 287 287 288 288
295 295 294 294 294 296 297 297 294 292 290 290 290 290 289 289 289 289 289 289 289 289 289 288 288 288 288 288 287 287 286 286 286 286 286 286 286 286 286 286 286 286 285 285 285 284 284 283 282 282 282 282 282 282 281 281 281 281 280 280 280 280 281 281 281 281 282 283 284 284 285 286 286 286 286 286 286 286 286 286 287 287 287 287 287
294 294 294 295 297 298 296 294 291 290 290 290 289 289 289 289 289 289 289 289 289 288 288 288 287 287 287 287 287 287 286 286 286 286 286 286 286 286 286 286 286 285 284 282 281 281 282 282 283 283 283 283 283 283 283 283 282 280 279 280 280 281 281 280 281 281 282 282 283 284 284 285 285 285 285 286 286 286 286 286 286 286 286 286 286
294 294 295 297 297 295 293 290 290 290 289 289 289 289 289 289 289 289 289 288 288 288 287 287 286 286 286 286 286 286 286 285 285 285 285 285 285 285 285 285 284 284 283 281 280 280 282 283 283 283 283 283 283 283 283 282 282 281 281 281 281 281 281 280 280 281 281 282 283 283 284 284 285 285 285 285 286 286 286 286 286 286 285 285 285
294 295 296 296 294 292 290 290 289 289 289 289 289 289 289 289 289 288 288 287 287 287 286 286 286 286 286 285 285 285 285 285 285 285 285 285 285 284 284 283 283 282 282 282 281 281 282 282 283 283 282 282 280 280 280 280 280 281 281 281 281 281 281 281 280 280 281 282 282 283 284 284 285 285 285 285 286 285 286 286 286 285 285 284 284
294 294 294 293 291 290 290 290 289 289 289 289 289 289 288 288 288 288 287 287 286 286 286 286 285 285 285 285 285 284 284 284 284 284 285 285 285 285 284 284 283 281 281 281 281 281 281 281 282 282 281 280 278 277 277 278 279 280 281 281 282 281 280 280 280 280 281 282 282 283 284 284 285 285 285 285 285 285 286 286 285 284 284 283 283
293 293 292 291 291 290 290 289 289 289 289 289 288 288 288 288 287 287 287 286 286 286 285 285 285 285 285 284 284 284 284 284 284 284 284 284 285 285 285 284 283 282 281 281 281 281 281 280 280 280 279 279 278 278 278 279 279 280 280 281 281 281 279 279 280 280 281 282 282 283 283 284 284 285 285 285 285 285 285 285 284 283 283 283 282
292 292 292 291 291 290 289 289 289 289 289 288 288 288 288 287 287 287 286 286 286 285 285 285 285 285 284 284 284 283 283 283 283 283 283 284 284 284 284 284 283 282 282 282 281 281 280 280 280 279 279 279 279 279 279 279 279 280 280 279 278 279 279 279 280 280 281 281 282 282 283 283 284 284 284 285 285 285 284 284 283 283 282 282 281
292 291 291 290 290 289 289 289 289 288 288 288 288 288 288 287 287 287 286 286 285 285 285 285 285 284 284 284 284 283 283 283 283 283 283 283 283 283 283 283 283 282 281 281 280 280 280 280 279 279 279 279 280 279 280 280 280 280 280 279 277 277 279 279 280 280 280 281 281 282 282 283 283 283 284 284 284 284 283 283 282 282 281 281 281
291 291 290 289 289 289 289 288 288 288 288 288 288 288 287 287 287 287 286 286 285 285 285 284 284 284 284 284 283 283 283 283 283 283 282 282 282 282 282 283 283 283 281 280 280 280 280 279 279 279 279 279 279 279 279 280 280 280 280 279 278 278 278 279 279 279 279 280 281 281 282 282 282 283 283 284 284 283 283 282 282 281 281 280 280
291 290 290 289 289 288 288 288 288 288 288 288 288 287 287 287 286 286 286 285 285 285 285 284 284 283 283 283 283 283 282 282 282 282 281 281 281 281 282 282 282 281 281 280 280 280 280 279 278 278 279 279 279 279 279 279 279 279 279 278 278 278 278 277 277 278 279 279 280 281 281 281 282 282 283 283 283 282 282 281 281 280 280 279 279
290 290 289 289 288 288 288 288 288 288 288 287 287 287 287 286 286 286 285 285 285 285 284 284 284 283 283 283 282 282 282 281 281 281 281 280 281 281 281 281 280 280 279 279 279 279 279 279 278 278 279 279 279 279 279 278 279 279 279 278 278 278 277 277 277 278 278 279 280 280 280 281 281 282 282 282 282 282 281 280 280 280 279 279 279
289 289 288 288 288 288 287 287 287 287 287 287 287 287 286 286 286 285 285 285 285 285 284 284 284 283 283 283 282 282 281 281 281 280 280 280 280 280 280 279 279 279 278 278 278 278 278 278 278 278 278 278 278 279 278 278 278 279 279 279 279 278 278 277 278 278 279 279 279 279 280 280 281 281 281 281 281 281 280 280 279 279 279 278 278
289 288 288 288 287 287 287 287 287 287 287 287 286 286 286 286 285 285 285 285 285 284 284 284 283 283 283 282 282 281 281 280 280 280 280 280 280 279 279 279 278 278 277 277 277 278 278 278 278 277 277 277 277 277 278 278 278 279 279 279 279 278 278 277 277 277 278 278 278 278 279 280 280 280 280 280 280 280 280 279 279 278 278 278 277
289 288 288 287 287 287 287 287 287 287 287 286 286 286 285 285 285 285 285 284 284 284 283 283 283 282 282 282 281 281 280 280 280 280 280 280 279 279 279 278 277 277 277 277 277 277 277 277 277 277 276 276 276 276 277 278 278 279 279 279 279 278 277 277 277 277 277 277 277 278 278 279 279 280 280 280 279 279 279 278 278 278 277 277 277
288 288 287 287 287 287 287 287 287 286 286 286 286 285 285 285 285 285 284 284 283 283 283 282 282 281 281 281 280 280 280 279 279 279 279 279 279 279 278 277 277 276 276 276 276 276 276 276 276 276 275 275 275 275 276 277 278 279 279 279 278 278 277 277 277 277 277 277 277 277 278 278 279 279 279 279 279 278 278 278 277 277 277 277 277
288 287 287 287 287 287 286 286 286 286 286 285 285 285 285 285 284 284 284 283 283 282 282 282 281 281 280 280 279 279 279 279 278 278 278 278 278 278 278 277 276 276 276 276 276 276 276 276 276 276 275 275 274 275 276 276 277 278 278 278 278 277 277 277 277 277 277 277 277 277 277 278 278 278 278 278 278 278 278 278 277 277 277 277 276
287 286 286 286 287 286 286 286 286 285 285 285 285 284 284 284 284 283 283 283 282 282 281 281 280 280 279 279 279 278 278 278 278 277 277 278 278 277 277 277 276 276 276 276 275 275 275 275 276 276 276 275 275 275 275 275 276 277 278 278 277 277 277 278 278 278 277 277 277 277 277 278 278 278 278 278 278 278 278 278 278 277 277 277 277
287 286 286 286 286 286 286 285 285 285 284 284 284 284 284 283 283 283 282 282 282 281 281 280 280 279 279 278 278 277 277 277 277 276 276 277 277 277 277 277 277 276 276 276 275 275 275 275 275 275 276 276 275 275 275 275 276 276 277 277 278 278 279 279 279 278 277 277 277 277 277 277 278 278 278 278 278 278 278 278 278 278 278 278 278
286 286 286 286 286 285 285 285 284 284 284 283 283 283 283 282 282 282 281 281 281 280 280 280 279 278 278 277 277 277 276 276 276 275 275 275 276 276 276 276 276 276 276 276 275 275 275 275 275 275 275 276 276 276 275 275 276 276 277 277 277 278 279 280 280 279 278 278 277 277 277 277 278 278 278 278 278 278 279 279 279 279 279 279 279
286 286 286 286 285 285 284 284 284 283 283 282 282 282 282 282 281 281 281 281 280 280 279 279 278 277 277 276 276 276 276 275 275 275 274 274 274 275 275 276 276 276 276 275 275 275 275 274 275 275 275 275 275 276 276 276 276 276 277 277 277 277 279 280 280 280 280 279 279 278 277 278 278 278 278 278 278 278 279 279 279 279 279 279 279
286 286 286 285 285 284 284 283 283 283 282 281 281 281 281 281 280 280 280 280 279 279 278 278 277 276 276 276 275 275 275 275 274 274 274 274 274 274 274 274 275 275 275 275 275 274 274 274 275 275 275 275 275 275 276 276 276 276 277 277 277 278 278 279 280 280 280 280 280 279 278 278 278 279 279 279 279 279 279 279 279 279 279 279 279
286 286 285 285 284 284 283 282 282 282 282 281 281 280 280 279 279 279 279 278 278 278 277 277 276 276 276 275 275 275 275 275 274 274 274 274 273 273 273 273 273 274 274 275 274 274 274 274 274 275 275 275 275 275 275 276 276 276 277 277 277 277 278 278 279 280 280 280 280 280 279 279 279 279 279 279 279 279 279 280 280 279 279 279 278
285 285 285 285 284 283 282 282 281 281 281 281 280 280 279 279 278 278 278 277 277 277 276 276 276 275 275 275 275 274 274 274 274 274 274 274 273 273 273 273 273 273 273 273 274 274 274 274 275 275 275 275 275 275 275 275 276 276 277 277 276 276 277 278 278 279 280 280 280 280 280 279 279 279 279 279 279 279 280 280 280 279 279 278 278
284 284 284 284 283 282 282 281 281 281 281 280 280 279 279 278 278 277 277 277 276 276 276 275 275 275 275 275 274 274 274 274 274 274 274 273 273 273 273 273 273 273 272 272 272 273 273 274 274 275 275 275 275 275 275 275 275 276 276 276 276 276 277 277 278 278 279 279 279 279 279 279 279 279 279 279 279 279 279 279 279 279 278 278 278
284 284 284 283 282 282 281 281 281 280 280 280 279 279 278 278 277 277 276 276 275 275 275 275 275 274 274 274 274 274 274 274 274 274 273 273 273 273 273 273 273 273 272 272 272 272 272 273 274 274 274 275 275 275 275 275 275 275 275 275 276 276 276 277 277 277 278 278 278 278 278 278 278 278 278 278 278 278 278 278 278 278 278 278 278
Wind_Speed
22 23 22 21 19 17 16 14 13 12 11 11 10 10 10 9 8 7 5 5 4 3 3 2 2 3 3 4 5 6 6 8 8 9 10 12 13 14 15 16 17 19 19 21 22 24 26 26 27 28 30 31 32 32 33 33 34 35 34 34 34 32 30 31 36 48 58 58 56 57 56 55 57 56 53 54 55 53 52 52 52 51 50 50 49
22 21 20 19 17 16 15 14 13 13 12 13 12 11 11 9 8 7 6 5 4 4 3 2 1 2 3 4 5 6 7 8 9 10 11 13 15 16 18 19 20 22 23 24 26 27 29 30 31 32 34 36 36 36 38 39 39 40 40 39 41 39 36 35 38 44 55 62 61 61 59 57 58 59 56 56 57 56 55 55 54 53 52 51 50
21 20 19 18 17 16 15 15 15 14 14 14 13 12 11 9 8 7 6 5 4 3 2 1 2 2 3 4 6 7 8 9 11 12 14 15 17 19 20 22 24 26 27 28 30 31 33 34 35 36 38 40 41 41 41 43 43 44 45 44 45 46 43 40 41 44 52 60 63 63 62 60 61 62 60 58 58 58 58 58 55 54 54 53 52
19 19 18 17 17 16 16 16 16 16 15 14 13 12 11 9 9 8 6 5 4 3 2 2 2 3 4 5 6 8 9 11 13 14 16 18 19 20 22 24 25 27 29 30 32 33 34 36 36 37 39 40 41 42 42 43 44 45 46 47 47 48 48 45 45 46 49 56 62 64 63 62 62 63 62 60 60 59 59 59 57 57 57 55 54
19 18 18 18 18 18 18 18 17 16 15 14 13 12 11 10 9 7 6 4 3 2 2 2 2 3 5 6 8 9 11 12 14 15 17 19 21 22 24 25 26 28 29 31 32 33 34 36 36 37 39 40 41 42 42 43 44 45 46 47 48 48 49 49 48 48 49 53 60 63 63 63 64 64 62 60 60 61 60 59 59 59 59 57 55
20 19 19 19 19 19 19 18 17 16 15 14 13 12 11 10 8 6 5 4 3 2 1 1 3 4 6 7 9 10 12 13 15 16 19 20 22 24 25 27 28 29 30 31 32 34 35 37 38 38 39 41 42 43 44 44 45 46 47 47 48 48 49 49 49 49 50 53 57 60 62 63 64 65 63 58 58 60 60 60 61 60 58 57 55
21 21 21 21 21 20 20 19 18 17 16 15 14 12 10 8 7 5 4 3 2 0 1 3 4 6 7 8 10 11 13 15 17 18 20 23 24 26 28 29 30 30 31 33 34 36 37 38 39 40 40 41 43 44 45 46 46 47 48 47 48 48 49 49 49 49 50 52 54 57 60 62 64 65 63 59 58 59 58 57 60 61 58 56 56
23 23 22 22 21 21 20 20 19 18 16 15 13 11 9 8 6 5 4 2 1 1 2 4 5 6 8 9 11 12 14 16 18 20 22 24 26 27 29 29 31 32 33 35 36 37 38 39 40 41 42 43 44 45 46 47 48 50 51 49 48 48 49 49 49 49 50 51 53 56 58 60 63 64 63 60 57 57 54 51 54 59 59 57 57
24 24 23 23 22 22 21 21 19 17 15 14 12 10 9 7 6 5 3 1 1 2 3 4 6 7 9 10 11 13 15 17 20 22 24 26 27 28 29 30 32 35 36 38 39 40 41 43 44 45 46 46 46 47 48 48 49 51 53 52 49 49 49 49 49 49 49 50 53 55 56 59 63 62 61 60 56 54 53 50 51 55 55 55 56
25 25 24 24 23 23 22 21 19 17 15 13 12 10 9 7 6 4 2 1 1 3 4 5 7 8 9 11 13 15 17 19 20 22 23 25 27 29 30 32 34 36 39 41 43 44 45 47 48 49 49 49 50 50 51 51 50 51 52 51 49 47 47 49 49 49 49 50 53 55 56 59 62 60 60 60 57 54 53 52 51 51 50 51 54
26 25 25 25 24 23 22 20 18 17 15 13 12 10 8 7 5 3 1 1 2 4 5 7 8 10 11 13 15 16 18 20 21 22 23 25 28 30 32 34 36 38 40 43 45 47 49 50 51 52 52 52 52 53 53 54 53 52 52 51 48 46 44 46 48 49 49 50 53 54 56 59 62 61 60 60 58 55 53 51 49 49 48 49 51
27 26 26 25 24 23 22 20 18 16 14 13 11 10 8 6 4 2 2 2 3 5 6 8 9 11 13 15 16 17 19 20 21 22 24 26 29 31 33 35 37 39 41 43 46 49 51 53 54 54 54 53 53 54 55 56 55 55 55 54 53 50 46 43 44 46 47 50 53 55 56 58 60 60 60 58 57 56 54 52 50 50 49 48 49
28 27 27 25 25 23 22 20 18 16 14 12 11 9 7 5 4 3 3 3 5 6 8 9 11 13 15 16 17 18 20 21 23 24 26 28 30 32 34 36 38 40 42 45 47 49 51 53 55 57 56 54 53 54 55 57 58 58 58 57 56 55 50 45 42 41 43 46 51 55 56 56 58 59 58 57 57 57 57 56 54 52 51 50 50
29 28 27 26 24 23 21 19 17 15 14 12 10 8 6 5 4 3 4 5 6 8 9 11 13 15 17 17 18 19 21 22 24 26 28 30 32 33 35 38 40 42 44 45 47 49 50 51 54 56 57 56 55 54 55 56 58 60 60 60 59 57 55 50 44 42 43 44 47 52 53 53 56 58 58 56 56 57 57 57 57 55 55 54 53
30 28 27 26 24 22 20 18 16 14 13 11 9 8 6 5 4 4 5 6 8 9 11 13 14 16 17 18 19 20 21 23 25 27 29 31 33 35 37 40 42 44 45 46 47 48 49 50 52 54 56 57 56 56 56 54 54 58 60 60 60 59 57 53 47 44 45 45 46 50 51 52 54 56 56 54 54 55 55 56 57 56 56 55 54
30 28 27 26 24 21 19 17 15 13 12 10 8 7 5 4 4 5 6 8 9 11 12 14 15 16 17 19 20 21 22 24 26 28 30 32 34 37 39 41 43 45 46 47 48 48 49 49 51 53 55 56 57 58 56 52 51 53 55 56 57 57 57 54 49 46 46 46 47 49 51 52 52 52 52 52 52 53 54 55 55 54 53 53 53
31 29 27 25 23 21 19 16 14 13 11 9 8 6 5 4 4 6 7 9 10 12 13 14 16 17 18 20 21 23 24 25 27 29 31 33 36 38 41 43 44 46 47 48 49 50 50 50 51 53 54 56 57 58 57 52 49 49 49 50 52 54 55 55 53 52 52 51 51 51 50 50 50 50 50 50 50 51 51 53 54 52 51 52 51
31 29 27 25 22 20 18 16 14 12 11 9 7 5 4 5 5 7 8 10 12 13 14 15 16 18 19 20 22 24 25 26 27 30 32 34 37 39 41 43 45 47 48 50 50 51 51 51 51 52 53 55 56 57 56 51 46 45 46 47 49 51 54 55 56 58 58 57 55 53 52 52 52 52 52 51 51 50 50 52 51 49 49 50 50
31 29 27 24 22 20 18 16 14 12 10 8 6 5 4 5 6 8 10 11 13 13 14 15 16 17 19 21 22 24 26 27 28 31 33 35 37 39 41 43 45 47 50 51 52 53 52 52 52 52 53 54 55 55 54 48 43 43 45 46 48 51 53 54 56 59 60 60 59 57 55 54 53 52 51 50 50 47 45 47 47 45 44 46 49
31 28 26 24 22 19 17 15 13 11 9 7 5 4 5 6 8 10 11 12 13 14 15 16 17 18 19 21 23 25 26 28 29 31 33 35 37 39 40 42 45 48 50 51 53 53 54 54 54 54 54 55 54 53 50 44 41 42 43 45 48 50 51 51 53 54 56 58 58 56 55 53 51 50 48 48 47 44 40 41 42 42 42 43 46
30 28 25 23 21 18 16 14 12 10 8 6 5 4 6 7 9 10 11 12 13 14 16 17 18 19 21 22 24 25 27 29 30 32 34 35 37 38 40 42 44 46 49 51 52 53 54 56 57 57 57 57 55 52 48 43 41 42 44 45 46 46 47 49 50 51 53 55 55 54 54 52 49 48 47 46 44 41 38 36 36 38 41 42 44
29 27 24 22 19 17 15 13 10 9 6 5 5 6 7 8 9 10 11 12 14 15 17 18 19 20 21 23 24 26 28 29 30 32 33 35 36 38 39 41 42 45 48 50 51 52 54 55 57 57 58 57 56 52 47 43 42 43 44 44 43 43 44 46 48 50 52 53 53 54 54 52 50 48 47 44 42 40 39 38 38 39 40 41 42
28 25 23 21 18 16 14 12 10 8 5 5 7 7 8 8 9 10 12 13 15 17 19 20 21 22 23 24 25 26 28 29 30 32 34 35 36 37 38 40 42 43 46 49 50 52 53 55 56 57 57 56 54 50 46 44 43 42 41 40 40 41 42 45 47 49 50 50 51 52 53 52 50 49 46 43 43 43 42 41 41 41 40 40 39
27 25 22 20 18 15 13 11 9 6 6 7 8 7 7 8 10 11 13 15 17 18 20 21 22 23 25 26 27 27 28 29 30 32 33 35 36 37 38 40 41 42 45 47 49 50 51 53 54 55 55 53 50 47 45 45 43 42 40 39 39 41 42 45 46 47 48 49 50 51 50 50 49 47 45 44 45 45 43 40 39 40 40 39 39
27 24 22 20 17 15 13 10 8 7 8 9 8 7 8 9 10 12 14 16 17 19 20 22 23 25 26 27 28 29 29 30 31 32 33 35 36 37 39 40 41 42 44 46 46 47 48 50 50 51 52 50 48 46 45 45 43 42 41 40 41 42 44 45 45 45 47 48 49 49 49 48 47 46 44 45 46 44 41 40 38 39 40 39 38
26 24 22 19 16 14 11 9 9 10 10 10 9 8 8 9 11 13 14 16 17 19 20 22 23 25 26 28 29 30 30 31 32 33 34 36 37 38 39 41 41 42 43 44 45 46 47 47 47 47 47 46 45 44 44 44 43 43 42 42 44 45 46 45 44 44 45 47 48 48 47 46 45 44 44 44 44 42 41 41 40 40 40 38 37
26 24 21 18 15 12 11 11 12 12 11 10 9 9 9 10 12 13 14 16 18 19 20 22 23 25 27 28 30 31 31 32 33 34 36 38 39 40 41 41 42 43 43 44 45 45 46 46 45 44 44 43 43 42 43 43 43 44 44 45 46 47 45 43 43 44 44 45 46 47 46 44 42 43 44 44 42 41 41 41 41 41 39 36 34
25 23 20 17 14 14 14 14 14 13 11 10 10 10 10 11 12 14 15 16 17 18 19 21 23 25 27 29 31 32 32 33 34 35 37 38 39 41 42 42 43 43 43 42 42 43 45 45 45 44 44 44 44 44 44 44 45 46 47 47 47 46 45 44 44 45 44 44 44 44 44 43 42 43 43 42 41 40 39 39 40 39 36 32 31
24 22 19 17 16 16 16 16 14 13 12 11 11 11 11 12 13 14 15 16 17 18 19 21 23 25 26 28 30 32 33 34 34 34 35 36 37 38 40 40 41 42 41 40 40 42 44 44 45 45 44 45 45 46 46 47 49 50 49 48 47 46 46 44 44 45 46 45 44 44 44 43 43 43 42 41 41 40 37 38 39 37 33 30 28
24 22 20 19 19 19 18 16 14 13 13 12 12 12 12 12 12 13 14 15 16 17 19 20 22 24 25 26 27 29 31 32 33 33 34 35 35 36 36 36 37 38 38 39 40 42 43 44 44 44 43 44 45 46 47 49 51 51 50 49 47 45 45 44 44 45 47 46 46 45 44 43 42 41 40 41 41 40 38 38 37 33 29 27 26
24 23 21 21 20 19 17 16 15 15 14 13 13 12 12 12 12 13 14 14 15 16 18 19 21 23 24 26 26 27 28 29 31 32 33 34 35 36 36 36 36 35 35 36 39 41 41 42 43 43 43 44 45 45 46 47 48 49 49 49 47 45 45 45 45 45 46 46 45 44 43 42 41 40 39 39 39 39 38 36 34 30 26 24 24
24 23 22 21 20 18 18 17 17 16 15 14 13 12 11 11 12 13 13 13 14 16 18 19 21 22 23 24 25 26 27 28 30 32 33 34 35 36 36 36 36 36 35 36 38 40 40 41 43 43 43 44 45 45 45 45 45 46 45 45 46 46 46 46 45 44 44 44 43 42 40 39 38 38 37 36 36 36 35 32 29 26 24 22 22
24 24 22 21 20 19 19 18 18 17 16 14 13 12 12 12 12 12 12 13 14 16 18 19 21 21 22 23 24 25 27 28 29 30 32 33 34 35 35 36 36 36 37 37 39 40 41 42 42 42 42 43 43 44 45 44 43 43 42 42 43 45 46 45 43 42 42 41 40 39 38 37 36 36 35 34 33 32 30 28 25 23 22 21 20
25 24 23 21 21 20 20 19 19 17 15 14 13 13 13 13 13 13 13 14 14 15 16 18 19 21 22 23 23 24 26 27 29 30 31 32 33 33 34 34 34 35 36 36 37 39 40 41 41 40 40 41 42 42 42 41 40 41 41 41 42 44 44 43 42 42 41 40 39 37 36 34 34 33 32 32 30 29 26 24 22 21 20 20 20
26 25 24 23 22 21 21 20 18 16 15 15 15 15 14 14 14 14 15 16 16 17 17 17 18 19 21 22 23 24 25 27 28 29 30 31 33 33 34 35 36 37 37 36 36 36 37 38 39 38 38 39 39 39 39 39 39 40 41 41 42 43 42 42 42 42 41 39 38 36 34 32 31 30 30 29 28 25 23 21 20 19 19 19 19
27 26 25 24 23 22 21 19 17 17 17 16 16 15 14 14 13 14 15 17 18 19 19 19 19 19 20 21 22 22 24 25 26 28 29 30 32 33 35 37 37 38 37 36 35 33 33 34 35 36 36 37 37 37 38 38 39 40 41 40 41 41 41 42 42 42 40 38 36 34 33 31 30 29 28 27 25 22 20 19 18 17 17 17 18
28 27 25 24 23 22 20 18 18 19 18 17 16 15 14 13 13 14 15 17 18 20 20 21 22 21 21 22 22 22 23 23 25 26 27 28 30 31 33 34 34 35 35 34 33 32 32 32 33 35 35 36 37 37 38 39 40 41 41 40 39 39 40 40 40 39 37 36 34 33 32 32 30 29 27 25 22 20 18 16 16 15 16 16 17
29 27 26 24 23 21 20 20 20 20 19 18 16 15 13 13 13 14 16 18 19 20 21 22 23 23 24 24 24 24 23 24 24 25 26 27 29 31 31 32 32 32 32 31 31 31 32 33 34 35 35 35 36 37 38 39 40 40 40 40 39 38 37 37 36 35 34 33 32 32 32 32 30 28 25 22 20 17 15 15 15 14 14 15 16
30 28 26 24 23 22 22 22 22 21 20 18 16 14 13 13 14 15 16 18 19 20 20 21 22 23 24 24 25 25 25 25 26 27 28 28 29 30 31 31 31 31 31 31 31 31 32 33 34 35 35 35 35 36 37 38 38 38 38 39 39 38 36 36 35 33 32 32 32 32 32 31 29 27 23 20 17 15 14 13 13 13 13 14 17
30 28 27 25 24 23 24 24 24 22 20 17 15 14 13 13 14 15 17 18 18 19 19 20 20 21 22 23 24 26 27 27 28 28 28 29 29 29 29 29 30 30 31 31 32 32 32 33 34 34 34 34 35 36 36 37 38 38 37 38 38 37 35 34 33 31 30 30 31 31 31 29 27 24 21 18 15 13 12 11 10 11 12 14 17
30 29 27 26 25 26 26 25 24 22 19 17 15 14 14 14 15 16 16 17 17 18 18 18 19 19 20 22 23 24 26 27 27 27 27 27 27 28 28 28 28 29 30 31 32 33 33 33 33 34 34 34 34 35 36 36 37 37 37 37 36 35 32 31 30 28 28 28 29 30 29 27 24 22 19 16 14 11 9 9 8 9 11 13 15
31 29 27 26 27 28 27 26 24 22 19 17 15 14 14 15 15 16 16 16 17 17 17 17 18 18 19 20 22 23 24 25 26 26 26 26 26 26 26 26 26 27 28 30 31 32 32 33 33 33 33 33 34 34 35 36 37 37 36 35 34 33 31 29 28 26 26 26 27 28 27 25 22 20 17 15 12 10 8 7 7 8 9 12 15
31 29 28 28 29 28 27 26 24 21 19 17 15 14 15 15 15 15 15 15 16 16 17 17 17 18 18 19 20 21 22 23 24 24 25 24 24 24 25 25 25 26 27 27 28 30 31 32 32 32 32 32 32 32 33 34 36 37 36 35 33 31 30 29 27 26 26 26 26 25 25 23 21 19 16 14 12 9 8 6 5 5 7 11 16
31 29 29 29 29 28 27 25 23 20 18 17 15 15 15 15 14 14 14 14 15 16 16 17 18 18 18 18 19 19 20 21 22 23 23 23 23 24 24 25 25 26 26 27 27 28 29 30 31 30 30 29 29 30 30 31 32 33 34 34 32 30 29 29 28 27 26 26 25 24 23 22 20 18 16 13 11 9 7 4 2 5 9 14 17
31 30 30 30 29 28 26 24 21 19 18 16 15 15 15 14 14 14 14 14 15 15 16 17 17 17 17 17 18 18 19 19 20 21 21 22 23 23 23 24 24 25 25 26 27 27 27 29 29 29 29 29 28 28 29 29 28 29 30 31 31 29 28 27 27 26 25 24 23 22 21 20 19 17 15 12 10 8 5 1 4 9 13 14 14
32 31 31 30 29 28 25 23 21 20 18 16 15 15 14 14 14 14 14 14 14 15 15 16 16 16 16 16 17 17 17 18 18 19 20 21 22 22 23 23 24 24 24 25 26 26 26 27 27 28 29 28 27 27 27 28 28 27 26 28 29 28 26 25 24 24 23 23 22 21 20 19 17 16 14 11 8 6 2 2 7 10 11 10 9
33 32 31 30 28 26 25 24 22 20 18 16 15 14 14 14 14 14 14 14 14 14 14 14 14 14 14 15 15 16 16 17 17 18 19 20 21 22 23 23 23 24 24 24 25 26 26 26 26 26 27 28 28 26 25 25 26 26 25 25 26 26 25 23 22 21 20 19 19 18 17 17 16 14 12 10 8 5 1 3 7 8 8 7 7
33 32 31 29 27 27 26 25 22 20 18 16 15 14 14 14 14 14 14 14 14 14 13 13 13 14 14 14 15 15 16 16 17 18 19 20 21 22 23 23 24 24 24 24 24 25 25 25 25 25 25 26 27 27 26 25 24 24 23 23 24 25 23 22 20 19 18 16 16 15 15 14 14 12 10 8 6 4 1 4 6 7 6 5 6
33 32 30 28 28 27 26 24 22 20 18 17 15 15 14 14 14 15 14 14 13 13 13 13 13 13 13 14 14 15 16 16 17 18 19 20 21 22 23 23 24 24 24 24 24 24 24 25 25 25 25 25 26 26 26 26 24 23 23 23 23 23 22 21 19 18 16 14 13 13 13 12 11 9 7 5 4 3 3 5 5 5 4 3 4
33 31 29 28 28 27 26 24 22 20 18 17 15 15 14 14 14 14 14 14 13 13 13 13 13 13 13 14 15 15 16 17 18 19 20 21 22 22 23 23 24 24 24 24 24 24 24 24 24 25 25 24 24 24 25 26 25 24 23 23 22 22 21 19 18 16 14 12 11 12 12 11 9 7 5 4 4 3 3 3 3 2 3 3 4
32 30 29 29 29 28 26 24 22 20 18 16 15 15 14 14 14 14 14 14 13 13 13 13 13 13 14 15 16 17 18 18 19 20 21 22 23 24 24 24 24 24 24 24 24 23 24 24 24 24 24 24 24 23 23 24 24 24 24 23 22 21 19 18 17 15 14 12 11 10 10 10 9 8 6 5 4 2 1 1 3 3 4 5 5
Wind_Direction
163 163 163 163 166 166 166 167 167 171 173 174 177 176 172 170 167 164 159 150 137 123 110 89 70 39 21 9 360 354 350 348 348 348 346 344 343 341 339 339 338 338 338 337 336 335 334 334 334 333 330 329 329 329 328 327 325 324 323 321 319 317 315 308 299 300 302 302 304 305 306 308 306 305 306 307 306 306 304 303 302 301 300 299 299
164 165 165 164 166 168 169 170 170 174 175 174 175 173 168 166 161 156 153 147 137 130 121 97 66 26 9 358 353 350 347 347 346 344 343 340 339 338 337 337 336 336 336 335 334 333 331 331 331 330 328 326 326 326 325 324 323 321 320 319 318 316 315 311 305 303 303 303 304 305 306 307 306 305 306 306 306 306 304 303 303 302 301 300 298
167 168 169 168 169 171 172 173 173 174 175 174 172 168 166 162 156 154 153 148 142 141 133 88 48 17 7 356 350 348 345 344 343 340 339 338 338 338 337 336 336 335 334 333 333 331 330 329 329 328 326 324 323 323 322 321 320 318 317 317 316 314 314 312 307 304 305 303 302 304 306 307 305 305 305 305 305 305 304 303 303 302 301 300 298
172 173 174 173 173 174 175 174 175 175 173 172 169 166 164 160 157 158 157 155 150 140 115 70 43 13 357 348 345 346 344 343 342 340 339 338 337 335 334 333 333 332 331 330 329 328 327 326 326 326 325 323 322 322 321 320 318 316 315 315 314 312 312 312 308 305 304 302 301 302 304 305 304 303 304 304 304 304 303 303 302 302 302 301 299
178 177 178 177 176 176 177 175 174 174 172 171 170 167 165 163 163 162 158 152 143 120 96 55 21 356 349 349 348 346 344 342 340 338 337 335 333 332 330 330 329 328 328 328 329 329 329 329 329 328 326 324 323 322 320 318 316 314 312 311 311 310 310 309 307 305 302 300 300 301 301 302 301 301 301 302 302 302 302 301 301 301 301 301 300
180 179 181 181 179 177 177 174 173 174 173 172 171 168 166 165 162 160 154 146 139 127 98 8 355 354 354 352 347 342 339 338 337 335 333 331 330 329 328 328 329 329 331 332 333 333 332 331 330 328 326 324 322 322 320 317 315 313 311 310 309 308 308 306 306 305 301 299 299 299 299 299 299 298 299 299 299 299 299 299 300 300 300 299 299
182 182 183 183 181 177 175 174 174 174 174 173 171 168 166 165 162 162 161 158 157 145 2 353 355 355 351 345 340 337 337 336 334 333 332 330 329 329 329 330 331 332 334 335 335 334 332 330 329 328 327 325 324 323 322 320 318 315 313 313 312 311 309 307 306 304 300 298 297 297 297 298 297 297 298 298 296 295 296 297 299 300 300 298 298
183 183 183 182 181 178 175 175 175 175 175 172 171 170 169 170 172 173 172 173 186 339 351 351 350 347 342 339 337 336 336 334 333 332 331 331 330 330 331 332 333 333 334 334 334 333 332 331 331 330 330 328 327 326 325 323 321 319 318 317 316 313 311 309 307 303 299 296 294 295 295 295 295 296 297 297 295 294 296 295 295 297 298 296 295
185 184 183 182 181 179 177 176 176 176 176 175 175 176 178 180 181 181 182 192 268 336 341 341 340 336 335 337 337 337 336 335 335 334 333 333 332 331 332 333 333 333 334 334 335 334 334 334 334 333 332 331 330 329 327 326 323 321 320 319 316 313 311 308 304 301 297 294 293 293 293 292 293 294 295 295 294 295 296 294 291 292 294 294 293
187 185 184 182 181 179 178 178 178 179 180 182 182 182 183 184 184 185 191 240 318 330 331 330 330 329 332 335 337 338 337 336 337 337 335 334 332 332 332 333 333 334 335 335 336 336 336 335 335 334 333 332 332 330 328 327 324 321 319 317 315 311 308 305 302 298 295 292 292 292 290 289 291 292 292 293 294 295 295 294 292 293 293 293 293
188 186 184 183 181 180 180 181 182 183 185 186 185 184 184 184 185 191 213 295 314 319 324 325 327 330 334 338 340 340 339 338 338 337 336 334 332 332 332 333 334 335 336 336 336 336 336 336 335 334 334 334 332 331 329 327 324 322 319 316 313 309 304 300 299 297 295 291 290 289 287 287 289 291 291 292 293 294 294 294 293 293 293 293 292
188 187 185 184 183 183 184 185 185 186 187 187 186 184 183 184 189 207 247 289 304 313 322 325 329 334 337 342 344 343 342 341 339 337 336 334 332 331 331 333 334 336 337 337 336 336 335 335 334 334 334 333 332 330 329 326 324 321 318 316 313 309 305 300 297 296 294 291 289 288 286 286 288 289 289 290 292 293 293 292 291 291 291 290 288
189 187 185 186 185 185 186 187 187 188 189 188 186 184 183 192 204 229 260 286 305 315 324 330 335 338 340 343 346 346 344 341 339 337 335 333 332 331 332 333 335 336 337 337 336 336 335 334 333 332 332 332 331 330 328 325 323 320 318 315 313 311 309 305 301 298 294 291 289 287 288 288 288 288 289 291 291 291 291 291 290 290 289 287 285
189 189 187 186 186 186 186 187 188 189 189 188 188 188 190 202 220 249 280 298 310 319 328 336 340 340 341 343 346 345 343 340 337 335 334 332 331 331 332 334 335 336 337 336 336 335 334 333 332 331 331 330 331 329 326 324 322 320 318 316 314 312 310 308 307 304 300 296 292 291 291 291 289 289 291 291 290 289 289 289 289 289 288 288 287
189 190 189 187 187 187 186 186 188 189 190 191 192 195 200 214 241 272 295 306 316 325 332 336 339 340 341 343 344 343 341 338 336 334 333 332 331 332 334 335 335 336 336 335 334 333 333 332 331 330 330 330 330 329 326 325 322 319 317 315 313 312 309 308 308 306 302 299 296 295 294 293 292 292 292 292 290 288 288 288 289 289 289 289 288
191 191 191 189 187 187 186 187 189 191 193 195 198 203 213 232 264 287 304 314 322 330 334 336 339 341 342 342 341 341 340 337 335 334 333 332 333 334 335 335 334 334 334 334 333 332 332 331 331 331 330 330 330 328 326 324 319 317 316 316 315 313 312 312 313 310 306 303 299 297 295 293 292 291 291 291 289 289 289 288 287 287 287 287 285
193 192 191 190 188 187 187 187 190 194 196 201 206 215 231 255 280 297 310 319 326 331 335 339 340 340 341 340 338 338 338 336 335 335 335 335 335 335 335 334 334 333 333 332 331 331 331 332 332 332 331 330 329 327 326 324 321 319 319 318 318 316 315 316 316 312 309 307 304 302 299 295 293 292 292 290 289 290 290 287 286 286 286 285 283
194 192 191 191 189 188 188 188 192 197 200 206 215 228 252 275 294 307 316 324 329 332 335 339 340 338 338 337 337 337 337 337 338 337 337 337 336 336 335 334 333 332 331 331 330 330 331 332 332 332 331 330 329 327 327 326 323 320 320 319 317 316 315 316 315 312 312 311 309 306 303 299 297 296 294 293 293 291 286 284 285 285 284 284 283
194 192 191 191 189 189 190 190 193 199 205 214 225 243 270 291 306 315 320 325 328 329 332 335 336 336 335 335 335 336 338 340 340 339 338 338 337 336 334 333 332 331 330 330 330 330 330 331 332 332 331 330 329 329 329 327 321 318 318 317 314 313 315 316 315 314 313 311 310 308 306 304 303 300 298 299 300 297 290 286 283 281 282 285 284
193 192 191 191 190 190 191 191 195 202 210 221 235 258 286 303 313 317 319 322 324 326 330 331 332 333 333 334 336 338 339 341 341 340 338 338 336 335 334 332 332 331 330 329 329 329 329 330 332 333 332 331 331 331 329 324 319 316 315 313 311 312 315 315 314 314 313 311 311 311 310 309 308 304 302 304 305 303 299 290 280 277 281 284 283
192 191 191 191 191 191 191 193 198 206 215 228 247 277 298 305 308 311 313 317 321 325 327 327 328 330 333 336 338 339 341 342 341 340 338 337 336 334 333 333 333 331 329 328 329 330 331 332 333 333 333 332 332 332 328 322 317 315 312 310 309 311 312 312 312 313 313 312 311 311 311 311 310 307 306 308 308 306 302 293 284 281 283 281 279
191 191 191 191 191 191 193 195 200 207 217 239 269 286 292 295 299 304 310 316 321 323 322 322 324 328 332 336 338 339 342 342 341 339 337 336 336 335 334 334 333 331 329 328 330 332 333 332 333 333 333 333 333 332 327 320 316 314 311 310 310 311 312 314 316 316 315 314 312 311 311 310 310 309 310 310 311 309 304 300 295 292 290 285 281
192 191 191 193 193 193 195 197 200 209 229 258 272 277 279 286 297 305 312 318 319 318 318 319 323 327 332 336 338 340 341 341 340 338 337 336 336 335 334 334 333 332 330 330 332 333 332 333 333 333 334 334 333 330 326 321 318 317 316 317 318 318 319 321 321 320 318 317 314 311 310 309 307 307 309 310 312 311 308 306 303 299 295 291 287
193 193 193 194 194 195 196 197 203 221 245 257 258 262 273 287 300 308 313 314 314 315 318 322 326 330 332 335 337 339 340 340 339 338 336 336 335 335 335 334 333 332 331 332 333 333 332 332 333 333 333 332 330 327 324 322 321 322 323 325 326 326 325 324 323 322 319 318 316 313 311 309 306 304 306 309 312 313 312 312 309 306 302 296 292
194 194 195 196 195 195 196 200 219 240 246 246 249 258 275 290 300 305 307 308 311 317 322 326 329 331 333 334 336 339 340 340 339 338 337 336 336 336 335 334 334 334 333 333 333 332 331 332 331 331 331 330 327 325 323 323 324 326 328 329 329 328 326 324 324 323 321 319 317 315 313 311 308 304 305 309 312 315 317 316 314 311 306 300 295
196 196 197 196 193 196 207 224 240 241 236 237 245 260 276 287 294 298 302 308 315 322 326 328 330 331 333 335 336 337 339 339 339 338 338 338 337 336 335 334 334 334 334 333 332 332 331 331 331 330 329 328 326 325 324 326 328 329 332 332 329 327 325 324 324 323 322 320 319 317 316 314 310 307 308 311 313 316 319 318 315 312 307 300 296
198 197 196 195 197 211 230 237 233 227 228 236 249 263 274 283 289 296 304 312 318 323 325 327 329 332 333 334 334 335 338 339 339 339 339 338 337 335 334 333 334 335 335 335 334 333 332 332 331 330 329 327 325 325 326 328 330 333 333 330 326 325 327 327 325 322 321 321 320 319 318 315 311 310 312 313 314 316 319 317 315 311 305 298 292
197 196 196 201 214 228 231 225 219 220 228 240 252 263 272 281 290 299 307 313 317 321 324 328 332 334 335 334 333 334 337 341 342 342 341 339 336 334 334 335 336 338 339 337 334 332 332 332 331 330 329 327 325 325 327 330 333 333 330 326 326 329 331 330 327 325 324 323 321 320 319 315 312 312 314 314 315 317 317 316 313 308 302 294 287
197 198 204 215 223 222 216 213 216 223 231 240 250 260 270 281 292 302 309 313 317 322 328 333 336 336 335 334 334 334 337 341 344 343 341 339 338 337 337 338 338 339 341 338 334 333 334 334 333 332 332 330 329 330 331 333 333 331 329 329 331 333 331 330 330 329 328 326 323 321 319 316 314 315 315 314 316 318 317 314 311 304 297 290 280
201 204 211 215 214 210 209 213 219 225 232 241 250 260 271 283 293 301 306 312 319 328 333 335 335 333 333 333 336 337 339 340 341 340 339 338 338 338 339 340 340 341 341 339 337 338 339 338 336 336 335 334 336 336 335 334 332 331 331 332 333 332 331 332 332 331 328 326 324 321 319 316 315 315 314 314 316 318 316 311 306 299 291 283 273
205 207 208 209 208 209 212 217 221 226 233 241 250 261 272 283 291 298 305 315 324 331 332 332 331 331 331 333 337 340 340 339 339 339 338 338 337 337 337 339 341 343 343 342 341 342 344 342 341 341 340 339 339 336 332 331 330 331 331 331 329 331 334 333 332 331 329 326 325 323 320 318 316 315 315 316 317 317 313 307 301 293 284 274 266
206 207 208 208 210 213 216 220 224 230 234 240 248 258 269 279 288 297 307 318 326 328 329 329 330 332 333 335 338 340 341 341 341 340 339 338 337 336 337 339 341 341 342 343 344 345 347 346 345 345 344 340 337 333 330 330 331 331 330 329 330 332 335 333 332 331 329 327 325 323 322 321 319 317 318 319 319 316 310 302 295 287 277 266 257
208 210 211 212 213 216 219 223 228 232 236 243 251 259 268 277 286 295 305 314 321 325 326 328 329 332 334 336 338 340 340 341 342 341 340 339 338 338 339 340 340 340 342 344 346 347 349 348 346 345 342 338 335 334 332 332 333 332 332 332 332 333 334 334 333 332 330 329 327 325 325 324 323 321 322 322 319 314 306 297 289 281 271 260 248
210 212 213 215 217 220 223 226 229 233 239 247 256 263 270 278 286 295 304 311 318 323 326 327 329 330 332 334 337 339 339 339 340 340 340 341 341 341 341 340 340 342 346 348 348 349 349 347 345 343 341 338 336 335 333 334 336 335 334 335 334 333 334 335 335 334 332 331 330 329 328 327 327 326 326 323 319 312 303 293 284 276 265 253 242
212 213 214 216 219 222 225 227 231 236 243 250 257 264 271 279 288 298 305 311 317 322 326 329 330 331 332 333 335 338 338 338 340 341 342 343 343 343 341 341 342 344 347 349 350 350 350 348 346 345 344 341 339 338 337 337 338 337 336 337 336 334 336 338 338 336 335 334 333 333 333 332 332 332 329 323 316 309 299 289 280 270 259 247 236
215 216 217 218 221 224 227 230 234 240 246 251 256 263 271 282 292 302 308 313 317 320 324 327 329 332 333 333 335 337 338 339 341 344 345 346 345 344 343 344 345 345 346 347 349 350 352 351 349 348 347 345 343 343 341 340 339 338 338 339 337 336 338 340 338 338 338 338 338 339 339 338 338 335 329 322 314 305 295 284 274 263 251 241 231
217 218 219 221 224 226 228 232 237 242 246 250 256 264 273 284 293 301 306 310 313 317 321 323 325 327 329 331 334 337 339 341 344 346 347 347 346 346 347 347 346 345 345 346 347 348 349 350 348 347 347 346 345 344 342 342 341 340 339 339 338 339 340 340 339 340 341 341 343 345 345 343 340 336 329 321 312 303 293 281 269 255 243 234 224
218 219 221 223 226 229 231 235 239 242 246 250 256 264 274 283 291 297 302 306 310 314 317 320 322 324 327 329 332 335 338 341 342 344 346 347 348 349 349 348 346 345 344 345 346 346 346 346 346 346 346 346 345 344 343 343 343 342 340 339 338 340 342 343 342 343 345 346 348 350 348 345 341 336 329 321 312 303 293 279 266 252 237 224 213
219 220 223 225 227 230 234 238 241 242 245 249 255 263 272 280 287 293 298 303 308 312 316 319 322 323 325 327 330 332 335 338 340 341 344 347 348 349 349 348 347 346 345 344 345 345 346 345 344 344 346 348 348 347 346 345 345 344 341 339 338 341 344 346 346 347 348 351 353 352 349 345 342 336 329 322 314 304 293 279 264 249 233 217 204
222 223 225 226 228 232 236 239 240 241 244 248 253 260 268 276 283 290 296 302 307 311 315 318 320 322 324 326 328 331 333 335 337 339 340 342 345 347 348 348 348 347 346 345 346 346 347 347 346 345 347 350 350 349 350 350 348 346 343 341 341 343 346 347 347 349 352 355 356 353 349 345 342 337 331 323 315 304 292 277 258 240 227 215 204
224 225 225 226 230 234 237 238 239 241 243 246 250 257 266 274 282 289 295 300 305 310 314 317 319 321 323 325 327 329 330 331 332 333 335 337 340 343 346 348 349 348 347 347 346 347 348 350 350 349 349 350 351 351 353 354 352 349 345 344 345 347 348 350 351 353 356 358 358 353 348 344 341 337 331 323 316 305 290 272 254 236 223 212 201
225 225 227 230 234 236 237 238 239 240 241 244 249 257 266 273 281 288 293 299 304 308 311 314 316 319 321 322 323 325 326 327 328 328 329 332 336 339 343 346 347 347 347 347 346 347 348 350 352 353 352 351 351 352 354 356 356 353 349 348 350 352 354 356 359 0 2 3 360 353 347 344 341 337 333 327 321 311 296 279 259 241 222 203 191
225 226 229 232 235 236 237 237 237 237 239 243 249 256 264 271 278 285 291 297 302 305 308 311 313 316 318 320 321 323 324 325 325 325 326 328 331 335 339 343 344 345 345 345 345 345 345 347 350 353 354 354 354 353 353 356 357 356 353 352 355 359 1 3 6 7 7 6 1 354 348 345 342 340 338 334 330 324 315 299 273 238 208 187 178
226 228 230 233 235 236 237 236 235 235 238 242 247 255 262 269 275 281 288 294 298 302 305 308 310 314 317 319 321 323 324 324 324 324 324 326 328 331 335 338 341 342 342 342 343 344 344 345 347 349 352 355 356 355 354 354 357 358 356 355 358 3 7 8 10 10 9 5 1 356 352 348 345 344 343 341 340 339 337 324 273 190 174 170 168
227 229 233 236 238 238 237 236 234 235 237 241 247 254 260 266 272 278 285 290 294 298 301 305 308 312 317 320 322 324 326 326 326 326 326 326 327 328 330 333 336 339 340 340 341 342 343 344 344 345 347 351 355 357 356 354 355 357 358 358 360 4 9 9 10 11 11 7 3 360 356 352 348 345 344 344 346 349 354 12 161 162 162 162 163
229 231 234 236 238 238 237 236 235 235 236 240 246 253 258 263 269 275 281 287 291 295 298 302 307 311 316 320 322 324 326 327 328 329 330 330 329 328 328 329 331 334 337 338 338 339 341 342 342 343 344 346 350 354 356 355 355 356 358 359 0 4 8 8 7 9 12 12 9 4 359 354 351 348 345 345 349 352 357 158 163 161 159 158 160
229 232 234 235 236 236 236 234 233 234 235 239 245 252 258 264 270 275 280 285 289 292 296 301 306 310 314 318 320 322 325 327 328 330 332 332 332 331 330 329 329 330 332 334 335 336 337 339 340 341 341 342 344 348 352 355 356 356 357 359 360 1 4 5 4 4 8 12 13 10 4 357 355 353 351 351 354 354 345 171 164 160 157 161 169
230 232 232 234 235 235 234 233 232 233 235 239 245 251 257 264 270 275 279 282 286 291 295 300 303 307 311 314 317 319 321 323 324 327 328 329 331 332 332 331 331 329 329 330 332 332 334 335 337 338 339 340 341 343 346 350 353 354 357 1 1 359 357 358 359 360 2 8 14 15 10 3 359 359 360 2 7 12 79 157 159 160 165 176 185
230 230 232 234 236 235 234 234 233 234 237 240 245 250 256 263 268 272 276 280 284 288 293 296 299 303 308 310 312 315 317 318 320 322 323 324 326 327 328 329 330 329 329 328 328 328 330 331 333 334 336 338 339 340 341 345 348 350 353 359 1 358 354 354 356 357 358 5 16 21 19 12 7 6 10 22 43 78 131 153 161 171 188 201 203
229 230 232 234 234 233 233 233 233 235 238 241 245 250 256 261 266 270 274 277 281 285 289 293 297 301 304 306 308 310 312 314 316 317 319 320 321 321 321 322 323 325 326 327 327 326 326 327 328 330 332 334 336 337 338 340 342 345 349 353 355 353 352 353 357 358 359 7 22 31 31 27 23 20 27 54 80 102 130 160 185 211 233 242 236
229 230 232 231 231 230 231 231 233 235 238 241 245 251 256 260 264 268 270 273 277 280 285 289 294 298 300 303 306 308 310 313 314 314 315 316 315 315 315 316 317 318 320 322 324 325 325 324 324 325 327 329 331 334 335 337 338 340 343 345 346 346 346 350 354 357 360 5 16 27 33 34 29 23 20 26 33 37 21 289 277 271 266 264 258